Wind_Speed
15 17 18 19 21 21 22 21 24 25 26 28 28 29 27 26 28 31 34 38 41 43 46 47 46 45 42 38 38 38 36 37 36 33 30 33 35 39 42 51 62 69 70 70
14 15 17 18 20 20 20 19 21 23 24 25 26 24 23 27 31 34 36 38 41 43 45 48 49 46 44 44 40 41 42 41 39 36 36 34 29 32 37 37 37 50 64 70
14 16 18 19 20 20 20 22 22 23 22 22 21 22 28 29 30 34 37 39 42 45 46 48 51 51 49 46 44 42 44 44 43 40 39 38 36 35 33 35 35 37 38 45
15 16 17 18 19 19 18 19 20 20 21 19 20 22 24 29 35 37 37 39 42 44 46 48 50 52 52 48 44 42 42 41 44 45 42 40 39 37 38 36 37 36 37 34
15 16 17 17 16 16 17 18 17 17 17 16 19 22 26 30 32 33 36 39 41 43 45 47 49 51 53 52 46 42 41 41 38 42 42 42 42 39 38 40 39 38 37 38
15 16 16 15 15 16 16 15 15 17 17 17 18 20 23 25 29 33 36 39 40 42 44 47 49 51 52 53 50 43 39 38 36 34 37 39 41 43 39 36 36 40 43 38
15 17 16 15 13 14 14 14 15 16 15 15 16 20 23 26 29 33 35 37 41 44 45 46 48 51 52 53 53 50 42 37 35 35 34 36 37 38 37 37 34 37 40 41
16 17 16 12 11 12 13 13 13 15 15 15 15 19 23 26 29 32 36 40 42 44 45 47 48 49 52 55 54 53 50 40 36 34 33 33 32 33 34 35 36 35 37 39
16 14 12 9 10 11 10 10 12 14 14 15 16 18 21 26 29 33 37 40 42 44 45 46 47 49 51 54 57 56 55 50 39 35 33 31 30 30 29 29 32 34 37 36
14 12 8 8 9 10 10 10 12 13 15 16 19 21 24 26 30 34 37 39 41 43 45 46 48 49 52 54 56 60 59 58 48 36 33 30 30 28 28 28 26 27 32 36
14 10 9 8 9 9 10 11 12 14 16 17 19 22 25 28 30 33 36 38 41 43 44 47 49 51 52 54 56 60 61 61 57 41 33 30 29 28 26 25 25 24 24 29
13 11 9 9 9 10 10 11 13 14 16 18 19 20 23 26 29 31 33 37 39 41 46 48 49 51 52 53 56 58 63 63 63 49 34 31 29 27 23 23 23 24 23 23
13 11 10 9 10 10 10 12 14 15 16 19 20 21 23 26 29 32 34 37 39 41 44 47 49 51 52 54 55 58 62 65 66 54 37 29 28 26 23 22 22 22 22 20
13 12 10 10 10 10 10 12 14 15 17 18 21 23 24 26 28 31 34 37 39 41 43 46 48 51 52 54 55 58 61 65 66 60 42 29 26 25 23 22 22 21 21 18
13 13 11 11 11 10 11 13 14 16 18 20 21 23 24 26 29 30 34 36 38 40 42 44 47 50 52 54 55 57 60 64 67 64 46 32 26 24 23 22 21 20 18 17
15 13 12 12 12 12 12 15 16 18 20 20 21 23 25 26 28 31 33 36 38 39 41 43 46 49 52 54 55 57 60 63 66 66 52 36 26 24 22 20 19 18 17 16
15 15 13 13 13 12 12 16 18 19 21 21 22 24 25 27 27 30 32 35 37 39 41 43 45 48 51 54 56 57 58 61 65 65 57 40 29 24 22 21 19 18 17 16
17 17 14 13 12 11 14 16 17 18 21 21 23 25 26 28 29 27 31 34 36 39 41 42 44 47 50 53 55 57 58 60 63 65 61 46 32 26 24 22 21 19 18 16
18 17 15 14 12 13 11 15 16 17 20 21 23 25 26 28 31 30 30 34 36 38 40 41 43 47 49 52 55 56 56 58 61 63 63 52 36 28 25 23 22 19 18 18
18 18 15 14 13 14 12 15 16 16 17 21 24 25 28 30 31 33 34 33 37 39 40 41 42 46 49 52 54 56 56 56 58 60 62 58 44 31 26 24 22 20 17 16
19 19 15 16 13 14 14 15 15 17 20 22 24 25 27 29 31 33 34 35 35 37 39 40 42 45 48 51 53 55 55 55 56 59 60 61 53 38 29 25 23 22 19 15
20 20 17 16 13 13 14 14 16 18 20 22 23 24 26 30 32 34 33 34 35 37 39 40 42 45 48 50 52 54 55 55 55 56 58 60 58 47 33 28 26 23 21 19
19 18 18 15 14 13 13 14 16 17 19 21 24 24 26 29 32 34 35 35 35 37 38 40 43 45 46 49 51 52 54 54 55 55 56 58 59 55 41 29 26 25 23 21
21 19 17 16 15 14 14 14 17 19 21 22 23 26 28 30 32 34 35 34 36 36 38 41 42 44 46 47 50 51 53 54 55 53 55 56 58 58 51 37 27 24 23 22
21 20 18 16 15 14 15 16 19 20 22 24 25 27 29 31 32 34 35 34 36 37 38 40 42 44 46 47 49 50 52 52 53 53 53 55 56 56 56 45 32 25 22 20
20 19 19 18 15 15 16 17 19 21 23 24 26 28 30 32 33 34 34 34 35 36 38 39 41 43 45 47 48 50 50 51 52 53 53 53 55 56 57 50 38 30 24 22
Wind_Direction
291 293 305 317 318 317 316 316 323 325 326 328 331 331 333 339 346 351 353 357 360 1 357 350 342 331 320 315 310 305 302 300 298 293 284 279 278 277 271 252 243 243 244 245
298 306 315 318 319 318 320 320 322 327 328 334 332 335 345 354 360 3 4 4 4 3 1 0 353 342 327 316 303 297 297 296 292 288 286 281 277 277 277 277 273 253 246 245
308 315 320 321 320 321 319 323 328 331 336 324 337 350 354 3 5 4 7 8 6 5 3 0 358 351 339 327 318 307 298 289 288 288 285 282 277 275 276 279 277 275 276 262
313 317 318 319 318 318 323 330 331 333 330 352 356 3 11 9 8 8 6 5 5 5 4 2 359 356 350 339 325 318 310 303 285 283 285 282 279 273 270 270 273 271 274 278
309 312 315 315 316 323 331 331 331 331 342 352 5 6 6 12 9 4 3 3 3 2 2 1 1 358 357 351 338 328 321 319 307 288 287 285 283 285 281 272 265 269 268 271
304 307 310 313 319 327 330 329 322 331 349 356 6 9 13 9 5 3 1 360 359 359 360 0 0 0 358 357 351 337 326 317 314 302 291 288 285 287 287 280 275 269 267 267
305 311 311 308 316 329 327 319 326 337 348 358 6 6 6 6 1 0 357 357 358 358 357 356 358 0 1 360 358 351 335 326 315 307 298 291 289 287 284 278 274 270 270 265
301 296 296 301 316 318 315 324 336 340 347 357 0 358 360 360 358 355 356 357 357 357 355 354 357 358 1 3 0 357 351 333 323 313 303 294 290 285 283 281 275 271 269 266
284 279 279 292 307 315 323 331 338 343 348 349 349 353 352 357 355 355 357 356 356 354 354 355 354 356 360 0 1 359 356 350 330 319 311 302 294 286 286 286 282 276 268 266
279 264 268 294 309 313 320 329 336 340 346 351 350 350 352 354 353 354 354 354 354 353 354 352 355 356 358 360 360 359 356 355 345 325 317 309 302 294 289 289 288 285 276 268
269 260 271 289 302 311 317 322 331 337 340 343 348 347 348 348 350 349 350 350 351 353 350 353 356 357 357 358 358 358 356 354 351 336 320 315 308 303 293 291 291 290 285 273
255 246 257 283 300 303 309 317 328 333 339 340 341 345 344 345 347 348 348 350 351 349 352 355 356 357 356 357 358 357 357 355 354 345 328 319 316 309 300 296 293 293 295 284
243 241 258 277 289 301 304 321 326 334 338 338 341 343 345 347 348 349 350 350 350 351 354 355 356 356 356 356 357 357 357 356 355 350 337 323 319 315 308 302 300 294 294 284
240 240 259 274 286 293 304 315 327 338 339 341 340 341 345 347 348 350 350 350 350 352 354 354 355 355 356 356 356 357 357 357 356 354 343 327 321 319 313 308 306 300 293 284
238 241 260 269 285 289 301 313 324 333 337 339 339 340 343 346 346 348 349 349 350 351 353 354 354 354 356 356 356 356 358 359 358 357 349 335 324 322 318 312 310 305 298 290
238 242 259 268 281 285 298 308 318 325 328 331 337 340 342 345 345 344 348 349 351 350 351 354 353 353 355 356 356 357 359 -0 -0 360 354 343 330 326 324 317 312 314 313 301
238 242 255 267 279 284 294 306 316 321 323 328 332 334 336 339 344 340 346 349 349 349 350 353 353 353 354 355 357 358 359 1 2 2 358 349 338 333 330 326 320 318 318 322
238 243 256 268 276 288 295 307 315 319 324 331 335 336 336 336 336 343 343 345 348 348 350 352 352 352 354 355 357 358 359 1 3 3 3 355 345 337 335 330 326 320 318 322
244 243 253 267 277 289 302 310 316 324 327 336 340 341 340 339 338 341 338 342 347 347 348 349 352 352 354 356 358 358 359 1 3 5 5 2 351 343 339 335 331 323 319 318
251 247 251 263 277 293 307 310 319 328 330 336 338 339 341 342 339 342 340 342 343 347 347 349 351 352 354 357 356 358 359 1 3 5 7 6 360 350 344 341 333 329 321 314
250 243 249 260 277 293 306 307 321 328 333 337 336 338 341 343 345 342 340 341 342 343 346 349 351 352 355 355 356 358 359 1 2 4 6 7 5 356 348 345 340 334 330 322
251 243 249 258 277 288 302 308 320 326 333 335 334 336 339 342 343 344 340 339 340 342 346 349 351 353 355 354 355 357 358 360 1 3 6 8 5 3 353 346 344 339 335 331
253 245 243 256 271 287 296 303 316 322 327 332 334 335 336 338 340 343 342 341 342 343 346 349 352 353 353 354 355 355 357 359 0 1 4 6 6 3 359 349 344 342 336 332
251 244 243 252 271 283 294 302 311 316 323 328 331 333 335 336 339 341 342 342 342 343 348 350 351 351 352 353 354 354 356 358 360 360 2 3 5 3 0 354 345 342 339 334
245 238 242 251 267 277 291 301 309 315 319 324 328 331 333 335 337 339 343 343 343 345 348 348 349 350 352 353 353 353 355 357 358 359 0 1 2 3 359 356 351 342 339 336
244 238 242 248 269 274 290 299 306 311 319 323 327 329 331 333 335 340 343 343 344 345 346 346 349 350 351 352 352 352 354 355 357 358 359 0 1 1 360 356 349 347 342 339
Height
5823 5824 5821 5819 5817 5815 5812 5810 5805 5803 5801 5797 5792 5787 5783 5778 5772 5765 5757 5749 5741 5733 5725 5717 5710 5703 5695 5690 5685 5679 5675 5671 5668 5666 5662 5660 5658 5653 5651 5652 5656 5660 5664 5669
5820 5819 5817 5815 5813 5811 5808 5806 5804 5800 5797 5794 5789 5785 5780 5773 5767 5760 5753 5745 5738 5730 5723 5714 5706 5698 5690 5683 5677 5671 5666 5662 5659 5657 5654 5652 5650 5647 5644 5644 5643 5644 5647 5651
5816 5815 5813 5811 5809 5806 5804 5802 5799 5796 5792 5790 5786 5781 5774 5769 5764 5757 5750 5743 5735 5727 5719 5711 5701 5691 5682 5674 5667 5662 5656 5651 5648 5646 5645 5644 5642 5640 5638 5635 5635 5634 5634 5637
5812 5811 5809 5807 5805 5803 5801 5798 5796 5792 5790 5785 5782 5778 5773 5767 5759 5752 5748 5741 5733 5725 5717 5708 5699 5689 5678 5667 5659 5652 5646 5640 5636 5634 5633 5632 5632 5631 5629 5628 5626 5625 5625 5626
5809 5807 5805 5804 5802 5799 5798 5796 5793 5790 5787 5784 5780 5776 5769 5764 5759 5754 5747 5740 5732 5724 5716 5707 5697 5687 5676 5664 5653 5645 5638 5631 5625 5623 5622 5621 5620 5620 5619 5619 5618 5616 5615 5616
5805 5803 5802 5800 5798 5796 5795 5794 5792 5788 5783 5781 5778 5774 5770 5765 5759 5752 5745 5738 5731 5723 5714 5706 5696 5686 5675 5663 5651 5640 5632 5625 5619 5614 5612 5611 5610 5608 5608 5608 5608 5607 5604 5606
5801 5799 5798 5798 5797 5794 5792 5792 5789 5787 5782 5780 5775 5772 5767 5762 5757 5750 5745 5737 5728 5720 5712 5703 5694 5684 5674 5662 5649 5637 5627 5619 5612 5607 5602 5601 5600 5598 5596 5596 5597 5597 5595 5594
5797 5798 5797 5796 5794 5792 5791 5790 5787 5783 5781 5778 5774 5770 5765 5760 5755 5749 5742 5733 5725 5718 5710 5701 5691 5682 5670 5659 5648 5637 5625 5614 5606 5600 5595 5591 5590 5587 5586 5584 5585 5585 5585 5584
5795 5794 5793 5792 5791 5791 5788 5787 5785 5782 5780 5776 5773 5770 5764 5758 5752 5746 5738 5731 5724 5716 5708 5699 5690 5680 5668 5657 5647 5635 5623 5611 5600 5593 5587 5583 5579 5577 5576 5574 5574 5574 5574 5574
5791 5790 5789 5789 5789 5788 5786 5785 5783 5781 5777 5773 5770 5765 5760 5755 5750 5743 5737 5730 5723 5715 5706 5698 5687 5676 5665 5655 5644 5632 5620 5607 5595 5586 5579 5575 5571 5568 5566 5565 5564 5563 5563 5564
5787 5787 5788 5787 5787 5785 5784 5783 5781 5779 5775 5771 5768 5764 5757 5753 5747 5741 5735 5729 5721 5712 5705 5694 5683 5673 5663 5652 5641 5629 5617 5604 5591 5579 5572 5567 5562 5559 5558 5557 5555 5554 5554 5554
5784 5784 5785 5784 5783 5783 5782 5781 5778 5776 5773 5769 5765 5763 5756 5750 5745 5740 5734 5726 5718 5711 5700 5689 5680 5670 5661 5650 5639 5627 5615 5600 5587 5573 5564 5559 5554 5552 5550 5549 5547 5545 5545 5545
5781 5782 5782 5781 5782 5780 5780 5778 5776 5773 5770 5766 5762 5759 5753 5747 5742 5736 5730 5723 5715 5706 5696 5687 5678 5668 5659 5648 5637 5625 5612 5597 5583 5569 5559 5553 5548 5545 5543 5542 5540 5539 5538 5537
5777 5778 5779 5779 5779 5778 5777 5776 5773 5770 5767 5764 5760 5755 5750 5745 5739 5733 5726 5719 5711 5702 5693 5684 5675 5666 5657 5646 5634 5623 5610 5595 5580 5565 5554 5547 5543 5540 5537 5535 5534 5532 5530 5530
5774 5776 5776 5776 5776 5775 5775 5772 5770 5767 5765 5761 5758 5752 5747 5742 5736 5731 5724 5717 5708 5700 5691 5682 5673 5664 5655 5644 5633 5621 5608 5594 5578 5563 5550 5543 5538 5535 5532 5530 5528 5526 5524 5522
5771 5773 5773 5773 5773 5772 5771 5770 5767 5764 5762 5759 5755 5750 5745 5739 5733 5727 5721 5714 5706 5698 5689 5681 5672 5663 5653 5642 5631 5620 5607 5593 5578 5563 5548 5540 5535 5531 5528 5526 5524 5521 5518 5516
5768 5769 5770 5770 5770 5769 5769 5766 5764 5761 5759 5756 5752 5748 5742 5736 5731 5724 5718 5711 5704 5696 5687 5679 5671 5661 5651 5641 5630 5619 5606 5593 5579 5564 5548 5537 5531 5527 5525 5522 5520 5517 5514 5511
5765 5766 5767 5767 5767 5767 5766 5763 5761 5759 5756 5753 5749 5744 5739 5733 5727 5722 5715 5709 5701 5693 5686 5678 5670 5660 5650 5640 5629 5618 5606 5594 5580 5565 5549 5537 5529 5525 5522 5519 5516 5514 5511 5508
5761 5762 5763 5763 5763 5764 5762 5760 5759 5756 5754 5750 5746 5741 5736 5731 5724 5720 5714 5706 5698 5692 5684 5676 5668 5659 5648 5638 5629 5617 5606 5594 5580 5567 5552 5539 5529 5523 5519 5516 5513 5510 5507 5504
5758 5759 5760 5760 5760 5760 5759 5757 5756 5754 5752 5747 5743 5738 5733 5727 5721 5715 5709 5703 5696 5689 5682 5675 5666 5657 5647 5638 5627 5617 5606 5594 5581 5568 5554 5541 5529 5522 5517 5513 5509 5506 5504 5501
5753 5755 5756 5756 5756 5757 5755 5754 5752 5751 5751 5744 5740 5736 5731 5725 5720 5712 5706 5699 5694 5688 5681 5673 5664 5655 5647 5636 5626 5617 5605 5593 5582 5569 5556 5543 5531 5522 5516 5511 5507 5503 5500 5497
5749 5750 5751 5752 5753 5753 5752 5751 5749 5748 5744 5740 5736 5732 5727 5722 5716 5710 5703 5697 5691 5685 5678 5670 5662 5654 5645 5635 5625 5616 5604 5592 5582 5570 5558 5546 5534 5523 5515 5510 5504 5500 5496 5493
5744 5746 5747 5749 5750 5749 5748 5747 5745 5743 5740 5737 5733 5730 5725 5719 5714 5707 5700 5694 5689 5683 5676 5668 5661 5652 5643 5634 5624 5615 5604 5593 5581 5570 5559 5547 5535 5524 5515 5509 5504 5498 5494 5491
5739 5741 5743 5744 5745 5745 5744 5743 5741 5739 5736 5733 5730 5725 5721 5716 5711 5704 5698 5692 5686 5680 5673 5666 5658 5650 5641 5632 5624 5613 5602 5592 5581 5570 5560 5548 5537 5526 5515 5508 5502 5497 5492 5488
5735 5736 5738 5740 5740 5740 5740 5738 5737 5735 5732 5729 5726 5722 5717 5712 5708 5702 5696 5690 5684 5677 5671 5664 5656 5648 5640 5631 5622 5611 5602 5591 5579 5569 5559 5548 5537 5526 5515 5505 5500 5495 5490 5486
5730 5732 5734 5735 5736 5736 5735 5734 5733 5731 5728 5725 5722 5718 5714 5709 5704 5699 5693 5686 5681 5674 5668 5661 5654 5646 5637 5629 5619 5609 5600 5589 5579 5569 5558 5548 5537 5525 5514 5503 5494 5490 5487 5482